Regional Weather Roundup
Issued by NWS Upton, NY

Current Version | Previous Version | Graphics & Text | Print | Product List | Glossary Off
Versions: 1 2 3 4 5 6 7 8 9 10 11 12 13 14 15 16 17 18 19 20 21 22 23 24 25 26 27

000
ASUS41 KOKX 230908
RWROKX

REGIONAL WEATHER ROUNDUP
NATIONAL WEATHER SERVICE NEW YORK NY
500 AM EDT SUN APR 23 2017

NOTE: "FAIR" INDICATES FEW OR NO CLOUDS BELOW 12,000 FEET WITH NO
SIGNIFICANT WEATHER AND/OR OBSTRUCTIONS TO VISIBILITY.

NYZ071-072-176-178-NJZ106-104-231000-
NEW YORK CITY METRO AREA

CITY           SKY/WX    TMP DP  RH WIND       PRES   REMARKS
Central Park   CLOUDY    47  36  65 N8        30.08R
Wall St Helipt CLOUDY    49  38  65 NE8       30.06S
Bronx Bot Gard   N/A     46  34  61 N3        30.05F
LaGuardia APRT CLOUDY    49  35  58 N12       30.05R
Kennedy INTL   CLOUDY    48  37  65 N14       30.05R
Breezy Point     N/A     48 N/A N/A N12G18      N/A
Newark/Liberty CLOUDY    47  35  63 N9        30.05R
Teterboro      CLOUDY    47  35  63 N8        30.05R
$$

NYZ177-179-078>081-231000-
LONG ISLAND NEW YORK

CITY           SKY/WX    TMP DP  RH WIND       PRES   REMARKS
Jones Beach      N/A     46 N/A N/A N12         N/A
Matinecock PT    N/A     48 N/A N/A N10         N/A
Farmingdale    CLOUDY    47  38  71 N8        30.03R
MacArthur/ISP  PTCLDY    46  40  79 N7        30.02S
Shirley        PTCLDY    43  40  89 N7        30.04R
Mt Sinai Harb  NOT AVBL
Westhampton    PTCLDY    40  37  89 N7        30.05R
East Hampton     N/A     37  36  98 CALM      30.03R
Montauk          N/A     40  38  93 CALM      30.04R
$$

NYZ052-065-067-231000-
HUDSON VALLEY

CITY           SKY/WX    TMP DP  RH WIND       PRES   REMARKS
White Plains   CLOUDY    45  34  65 N13       30.03R
Larchmont Harb   N/A     46 N/A N/A N8          N/A
Croton O-T Hud   N/A     45 N/A N/A N1          N/A
Newburgh       CLEAR     37  36  93 CALM      30.06S
Montgomery     CLEAR     35  34  96 CALM      30.06R
Poughkeepsie   CLEAR     36  34  92 CALM      30.06R
Albany         PTCLDY    40  33  76 N3        30.06F
$$

NJZ001-105-106-008-010-013-015-019>022-104-231000-
NEW JERSEY

CITY           SKY/WX    TMP DP  RH WIND       PRES   REMARKS
Newark/Liberty CLOUDY    47  35  63 N9        30.05R
Teterboro      CLOUDY    47  35  63 N8        30.05R
Caldwell       CLOUDY    45  35  68 CALM      30.07R
Somerville     CLOUDY    44  36  73 N6        30.04S
Linden           N/A     46  36  66 CALM      30.06R
Sussex         CLOUDY    35  33  92 CALM      30.07R
Andover          N/A     36  33  89 CALM      30.07R
Trenton        CLOUDY    45  36  70 N6        30.05R
Millville      CLOUDY    46  42  86 N6        30.05R
Atlantic City  CLOUDY    45  40  82 N6        30.05R
Wrightstown    CLOUDY    43  39  84 NW5       30.02R
Toms River     CLOUDY    43  41  93 N3        30.05R
Belmar         CLOUDY    44  40  85 NW5       30.05R
$$

PAZ047>061-062-071-231000-
EASTERN PENNSYLVANIA

CITY           SKY/WX    TMP DP  RH WIND       PRES   REMARKS
Philadelphia   CLOUDY    47  36  65 N9        30.07R
Allentown      PTCLDY    41  32  70 CALM      30.07R
Scranton       CLEAR     37  33  85 E5        30.07S WCI  33
$$

CTZ002-004>006-009-010-012-RIZ004-006-007-MAZ004-011-015-231000-
SOUTHERN NEW ENGLAND
 IN CT

CITY           SKY/WX    TMP DP  RH WIND       PRES   REMARKS
Bradley INTL   CLOUDY    42  37  82 NW6       30.04R
Hartford       PTCLDY    46  38  73 CALM      30.04R
Danbury        CLOUDY    42  36  79 N6        30.06R
Wtrbury/Oxford CLOUDY    39  30  70 N6        30.05R WCI  35
Bridgeport     CLOUDY    48  37  65 N8        30.04R
Meriden        PTCLDY    47  37  68 NW6       30.05R
New Haven      CLOUDY    46  39  76 N9        30.04R
Chester          N/A     46  37  71 N6        30.03R
Groton         MOCLDY    46  42  86 N8        30.02R
Wilimantic     PTCLDY    46  36  68 N3        30.03S

 IN RI

CITY           SKY/WX    TMP DP  RH WIND       PRES   REMARKS
Providence     CLOUDY    44  39  82 NW6       30.02R
Block Island   CLOUDY    42  42 100 NW3       30.02S
Westerly       MOCLDY    46  43  89 CALM      30.02S
 IN MA

CITY           SKY/WX    TMP DP  RH WIND       PRES   REMARKS
Boston         CLOUDY    42  37  82 NW9       30.00R
Worcester      CLEAR     38  33  82 W3        30.00R
Westfield      CLEAR     39  36  89 N6        30.03R WCI  35
Provincetown   CLOUDY    43  40  89 N10       30.00R
Nantucket      CLOUDY    44  38  79 N12       29.99R
$$

ANZ330-335-338-340-345-350-353-355-231000-
COASTAL MARINE OBSERVATIONS


STATION/POSITION TIME  SKY/WX   TEMP    WIND        PRES    VSBY  WAVE
                                AIR SEA DIR/SP/G                  HT/PER
                 (UTC)          (F)     (DEG/KT/KT) (MB)    (MI)  (FT/S)
NY HARB ENTRANCE 0750            50 49  360/ 14/ 16 1016.4          4/10
20 S FIRE ISLAND 0850            48 47  360/ 14/ 16 1015.9          4/11
GREAT SOUTH BAY  0815            48 55  350/  8/ 10   N/A
23 SSW MONTAUK P 0750            45 45              1016.8          4/ 7
15 E BARNEGAT LI 0830               50                N/A           5/11
HUDSON CANYON    0750            47 47   10/  4/  6 1016.0          5/10
KINGS POINT      0836            47 46   50/  7/  9 1017.2
EXECUTION ROCKS  NOT AVBL
CENTRAL LI SOUND 0800            47     350/  4/  6   N/A           1
EASTERN LI SOUND NOT AVBL
ROBBINS REEF     0848            48     360/  9/ 11 1017.8
$$


>>>>>>>>>>>>>>>>>>>>>>>>>>>> KEY <<<<<<<<<<<<<<<<<<<<<<<<<<<
>                                                          <
>     SKY/WX - Sky Condition/Present Weather               <
>     TMP    - Temperature in Fahrenheit                   <
>     DP     - Dew Point in Fahrenheit                     <
>     RH     - Relative Humidity in Percent                <
>     WIND   - Direction (from) and Speed in MPH           <
>     PRES   - Mean Sea Level Pressure (inches of Hg)      <
>     WCI    - Wind Chill Index                            <
>     VSB    - VISIBILITY IN MILES                         <
>     HX     - HEAT INDEX                                  <
>     TC     - TEMPERATURE IN CELSIUS                      <
>     VRB    - VARIABLE WIND DIRECTION                     <
>                                                          <
>>>>>>>>>>>>>>>>>>>>>>>>>>>> KEY <<<<<<<<<<<<<<<<<<<<<<<<<<<




USA.gov is the U.S. government's official web portal to all federal, state and local government web resources and services.